Weather History for VANP - August, 2013

Change the Weather History Date:

Friday, August 2, 2013

  Actual Average Record
Temperature  
Mean Temperature 74 °F -  
Max Temperature 77 °F 87 °F - ()
Min Temperature 72 °F 74 °F - ()
Cooling Degree Days 10    
Growing Degree Days 24 (Base 50)    
Moisture  
Dew Point 75 °F    
Average Humidity 96    
Maximum Humidity 100    
Minimum Humidity 94    
Precipitation  
Precipitation 0.24 in 0.37 in - ()
Sea Level Pressure  
Sea Level Pressure 29.52 in    
Wind  
Wind Speed 6 mph ()    
Max Wind Speed 9 mph    
Max Gust Speed -    
Visibility 1.4 miles    
Events Rain    
T = Trace of Precipitation, MM = Missing Value Source: Averaged Metar Reports

Daily Weather History Graph

Daily Weather History Graph

Search for Another Location

Airport or City:

Trip Planner

Search our weather history database for the weather conditions in past years. The results will help you decide how hot, cold, wet, or windy it might be!

Date:

Astronomy

Aug. 02, 2013 Rise Set
Actual Time 5:47 AM IST 6:51 PM IST
Civil Twilight 5:24 AM IST 7:15 PM IST
Nautical Twilight 4:56 AM IST 7:43 PM IST
Astronomical Twilight 4:27 AM IST 8:12 PM IST
Moon 1:52 AM IST (8/2) 3:21 PM IST (8/2)
Length of Visible Light 13h 51m
Length of Day
13h 04m
Waning Crescent, 19% of the Moon is Illuminated
Aug 2
Waning Crescent
Aug 7
New
Aug 14
First Quarter
Aug 21
Full
Aug 28
Last Quarter

Hourly Weather History & Observations

Time (IST) Temp. Dew Point Humidity Pressure Visibility Wind Dir Wind Speed Gust Speed Precip Events Conditions
12:10 AM 75.2 °F 73.4 °F 94% 29.47 in 1.9 mi West 5.8 mph - N/A   Light Drizzle
1:10 AM 75.2 °F 73.4 °F 94% 29.47 in 2.5 mi WSW 3.5 mph - N/A   Haze
2:10 AM 73.4 °F 71.6 °F 94% 29.44 in 2.5 mi WSW 4.6 mph - N/A   Haze
2:30 AM 74 °F 74 °F 100% 29.42 in 1 mi WSW 4.6 mph - - Rain Light Rain
4:10 AM 73.4 °F 73.4 °F 100% 29.44 in 1.2 mi WSW 3.5 mph - N/A Rain Rain
5:10 AM 73.4 °F 73.4 °F 100% 29.47 in 1.2 mi WSW 4.6 mph - N/A Rain Rain
6:10 AM 73.4 °F 73.4 °F 100% 29.47 in 0.9 mi WSW 4.6 mph - N/A Rain Rain
6:40 AM 73.4 °F 73.4 °F 100% 29.50 in 0.7 mi SW 6.9 mph - N/A Rain Rain
7:10 AM 75.2 °F 73.4 °F 94% 29.50 in - North - - N/A Rain Rain
7:40 AM 75.2 °F 73.4 °F 94% 29.50 in 0.7 mi SW 6.9 mph - N/A Rain Light Rain
8:10 AM 75.2 °F 75.2 °F 100% 29.50 in 0.9 mi SW 6.9 mph - N/A Rain Light Rain
8:30 AM 74 °F 74 °F 100% 29.49 in 1 mi Calm Calm - - Rain Light Rain
8:40 AM 75.2 °F 75.2 °F 100% 29.53 in 0.9 mi SW 6.9 mph - N/A Rain Light Rain
9:40 AM 77.0 °F 75.2 °F 94% 29.53 in 1.2 mi SW 6.9 mph - N/A Rain Light Rain
10:10 AM 77.0 °F 75.2 °F 94% 29.53 in 1.2 mi SW 8.1 mph - N/A Rain Light Rain
10:40 AM 77.0 °F 75.2 °F 94% 29.56 in 1.2 mi SW 6.9 mph - N/A Rain Light Rain
11:10 AM 77.0 °F 75.2 °F 94% 29.56 in 1.2 mi SW 8.1 mph - N/A Rain Light Rain
11:30 AM 76 °F 75 °F 95% 29.51 in 1 mi SW 6.9 mph - - Rain Light Drizzle
11:40 AM 77.0 °F 75.2 °F 94% 29.56 in 1.2 mi SW 6.9 mph - N/A   Light Drizzle
12:10 PM 77.0 °F 77.0 °F 100% 29.53 in 1.2 mi SW 6.9 mph - N/A Rain Light Rain
12:40 PM 77.0 °F 77.0 °F 100% 29.53 in 1.2 mi SW 6.9 mph - N/A Rain Light Rain
1:10 PM 77.0 °F 77.0 °F 100% 29.53 in 1.2 mi SW 6.9 mph - N/A Rain Light Rain
1:40 PM 77.0 °F 77.0 °F 100% 29.53 in 1.2 mi SW 8.1 mph - N/A Rain Light Rain
2:10 PM 77.0 °F 75.2 °F 94% 29.53 in 1.2 mi WSW 9.2 mph - N/A   Light Drizzle
2:30 PM 77 °F 76 °F 94% 29.48 in 1 mi SW 6.9 mph - - Rain Light Drizzle
2:40 PM 77.0 °F 75.2 °F 94% 29.53 in 1.2 mi SW 8.1 mph - N/A   Light Drizzle
3:40 PM 77.0 °F 75.2 °F 94% 29.50 in 1.2 mi SW 5.8 mph - N/A   Light Drizzle
4:10 PM 77.0 °F 75.2 °F 94% 29.50 in 1.2 mi SW 6.9 mph - N/A   Light Drizzle
4:40 PM 77.0 °F 75.2 °F 94% 29.50 in 1.2 mi WSW 6.9 mph - N/A   Light Drizzle
5:30 PM 77 °F 76 °F 95% 29.47 in 1 mi SW 9.2 mph - - Rain Light Drizzle
5:40 PM 77.0 °F 75.2 °F 94% 29.53 in 1.9 mi SW 9.2 mph - N/A   Haze
6:10 PM 77.0 °F 75.2 °F 94% 29.53 in 2.5 mi WSW 8.1 mph - N/A   Haze
6:40 PM 77.0 °F 75.2 °F 94% 29.53 in 2.5 mi WSW 6.9 mph - N/A   Haze
7:40 PM 77.0 °F 75.2 °F 94% 29.56 in 1.9 mi SW 5.8 mph - N/A   Haze
8:10 PM 77.0 °F 75.2 °F 94% 29.59 in 1.9 mi SW 4.6 mph - N/A   Haze
8:30 PM 75 °F 75 °F 99% 29.55 in 1 mi SW 5.8 mph - -   Haze
8:40 PM 77.0 °F 75.2 °F 94% 29.59 in 1.9 mi WSW 8.1 mph - N/A   Haze
9:10 PM 77.0 °F 75.2 °F 94% 29.59 in 1.9 mi SW 4.6 mph - N/A   Haze
9:40 PM 75.2 °F 73.4 °F 94% 29.59 in 1.9 mi SW 9.2 mph - N/A   Haze
10:10 PM 75.2 °F 73.4 °F 94% 29.62 in 1.9 mi SW 5.8 mph - N/A   Haze
11:10 PM 75.2 °F 73.4 °F 94% 29.62 in 1.9 mi SW 6.9 mph - N/A   Haze
11:30 PM 75 °F 74 °F 95% 29.63 in 1 mi SW 5.8 mph - - Rain Light Rain